Regional Weather Roundup
Issued by NWS

Home | Current Version | Previous Version | Graphics & Text | Print | Product List | Glossary Off
Versions: 1 2 3 4 5 6 7 8 9 10 11 12 13 14 15 16 17 18 19 20 21 22 23 24 25 26 27 28 29 30 31 32 33 34 35 36 37 38 39 40 41 42 43 44 45 46 47 48 49 50

000
ASUS43 KTOP 232008
RWRKS

WEATHER ROUNDUP FOR KANSAS
NATIONAL WEATHER SERVICE GOODLAND KS
200 PM CST THU NOV 23 2017

NOTE:  "FAIR" INDICATES FEW OR NO CLOUDS BELOW 12,000 FEET WITH NO
SIGNIFICANT WEATHER AND/OR OBSTRUCTIONS TO VISIBILITY.

KSZ001>006-013>018-027>032-041>047-232100-
NORTHWEST KANSAS

CITY           SKY/WX    TMP DP  RH WIND       PRES   REMARKS
GOODLAND       SUNNY     70  38  31 W5        30.01F
HAYS           CLOUDY    70  43  37 S5        29.98F
HILL CITY      CLOUDY    73  42  32 SW5       29.97F
RUSSELL        CLOUDY    71  43  36 SW9       29.97F
$$

KSZ061>065-074>080-084>089-232100-
SOUTHWEST KANSAS

CITY           SKY/WX    TMP DP  RH WIND       PRES   REMARKS
DODGE CITY     CLOUDY    74  41  30 W6        30.02F
ELKHART        SUNNY     74  43  32 NW7       30.07F
GARDEN CITY    SUNNY     71  38  29 NW9       30.02F
GREAT BEND     SUNNY     74  41  30 S8        29.99F
LIBERAL        SUNNY     72  41  32 NW7       30.05F
PRATT          SUNNY     72  37  28 S3        30.01F
$$

KSZ066>073-081>083-090>101-232100-
SOUTHEAST KANSAS

CITY           SKY/WX    TMP DP  RH WIND       PRES   REMARKS
CHANUTE        SUNNY     63  33  32 S7        30.01F
COFFEYVILLE    SUNNY     63  30  28 SW6       30.02F
HUTCHINSON     SUNNY     72  40  31 S7        29.99F
MEDICINE LODGE   N/A     74  40  29 VRB5      29.99F
NEWTON         SUNNY     70  39  32 SW7       30.01F
PARSONS        SUNNY     62  31  31 SW7       30.03F
WICHITA INTL   MOSUNNY   69  38  32 VRB6      30.00F
WICHITA JABRA  SUNNY     68  36  30 S5        30.00F
WICHITA MCCONL SUNNY     68  34  28 SW6       30.00F
WINFIELD       SUNNY     68  34  28 SW7       30.02F
$$

KSZ007>012-019>026-033>040-048>060-102>105-232100-
NORTHEAST KANSAS

CITY           SKY/WX    TMP DP  RH WIND       PRES   REMARKS
CONCORDIA      SUNNY     71  40  32 S8        29.95F
EMPORIA        SUNNY     68  36  30 CALM      29.99F
LAWRENCE       SUNNY     64  36  35 CALM      29.98F
MANHATTAN      SUNNY     68  38  33 S3        29.97F
MARYSVILLE     SUNNY     70  41  35 S6        29.95F
OLATHE IND     SUNNY     62  36  37 SW6       29.99F
OLATHE EXE     SUNNY     60  36  40 W5        29.99S
SALINA         SUNNY     70  41  34 S7        29.98F
TOPEKA BILLARD SUNNY     66  37  34 CALM      29.97F
TOPEKA FORBES  SUNNY     69  38  32 N3        29.98F
$$




USA.gov is the U.S. government's official web portal to all federal, state and local government web resources and services.